Tracking 19246 objects as of 21-Sep-2018
HD Live streaming from Space Station
objects crossing your sky now

FENGYUN 1C DEB

Track FENGYUN 1C DEB now!
10-day predictions


NORAD ID: 35176
Int'l Code: 1999-025DNG
Perigee: 812.3 km
Apogee: 894.9 km
Inclination: 98.7 °
Period: 101.9 minutes
Semi major axis: 7224 km
RCS: 0.0129 m2 (small)
Launch date: May 10, 1999
Source: People's Republic of China (PRC)
Launch site: Taiyaun Space Center, China (TSC)

Note: This is SATELLITE DEBRIS
aabbcc
Your satellite tracking list
Your tracking list is empty




NASA's NSSDC Master Catalog

Two Line Element Set (TLE):
1 35176U 99025DNG 18263.39211867  .00000083  00000-0  65197-4 0  9997
2 35176  98.7171 314.2466 0057155  65.9148 294.7990 14.13791597541107
Source of the keplerian elements: AFSPC